WESTFORD NEEDLES, 629

Orbit data source: Space-Track

WESTFORD NEEDLES, 629 is space debris in LEO originally from a launch on Thu, 09 May 1963 UTC via an ATLAS AGENA B launch vehicle from the Air Force Western Test Range (AFWTR). Debris objects in space refer to the collection of defunct objects orbiting the Earth. Examples of debris include non-operational satellites, rocket bodies, and fragments generated from explosions, collisions, or faulty payload assembly.

Loading next visibility...
Identifier
629, 1963-014G
Orbit
LEO
Country
Flag of USUS
Related business
Manufacturer
MIT-LL
Mission
Spacecraft
Bus & Motor
Unknown
Mass
8 kg wet, 8 kg dry
Launch date (UTC)
1963-05-09 (63 years ago)
Launch vehicle
ATLAS AGENA B
Launch site
Air Force Western Test Range (AFWTR)
Object type
Payload
Rocket body
Debris
Shape & HBR
Unknown shape, 1.1 m
Radar Cross Section
Large (>1 m²)

Expand to show TLE details & history
Last TLE update: 1 day ago

TLE from 1 day ago
0 WESTFORD NEEDLES
1 00629U 63014G   25310.68973457 -.00000013  00000-0 -74415-2 0  9990
2 00629  87.3479 212.4338 0054434 228.6461 130.9704  8.65565182974942
Epoch: 2025-11-06T16:33Z
TLE epoch observation values (Epoch: 2025-11-06T16:33:13.066Z)
Latitude
0.00004°
Longitude
-82.01508°
Altitude
3,680.006 km
Speed
6.285 km/s
True Right ascension
14h 09m 44s
True Declination
0° 00' 00"
Sunlit
Object was in daylight at epoch
Visualization orbit readout
Latitude
Unknown
Longitude
Unknown
Altitude
Unknown
Speed
Unknown
Apparent Right ascension
Unknown
Apparent Declination
Unknown
Sunlit
N/A
Visualization observer readout
Local Sidereal Time
13:28:10
Azimuth
Unknown
Elevation
Unknown
Doppler factor
Unknown
Orbital elements
Apogee altitude
3,694.239 km
Perigee altitude
3,585.176 km
Semi-major axis
10,017.844 km
Eccentricity
0.00544
Inclination
87.3479°
RAAN
212.4338°
Arg. of periapsis
228.6461°
True anomaly
131.43928°
Mean anomaly
130.9704°
Eccentric anomaly
131.20505°
Mean motion
2.16462 °/min
Orbital period
166.31 mins
BSTAR
-0.0074415
Loading maneuver chart data...
Computing Atmospheric mass density...
Loading historical data...
Loading historical data...
Loading historical data...
Loading historical data...
Loading historical data...
Loading historical data...
Loading historical data...

Documentation

Showing up to 5 results
|